TimeMDT,TemperatureF,Dew PointF,Humidity,Sea Level PressureIn,VisibilityMPH,Wind Direction,Wind SpeedMPH,Gust SpeedMPH,PrecipitationIn,Events,Conditions,WindDirDegrees,DateUTC
12:53 AM,1.0,-2.9,83,30.49,10.0,ESE,4.6,-,N/A,,Clear,120,2013-03-25 06:53:00
1:53 AM,1.0,-2.9,83,30.48,10.0,ESE,10.4,-,N/A,,Clear,110,2013-03-25 07:53:00
2:53 AM,1.0,-4.0,79,30.48,10.0,ESE,10.4,-,N/A,,Clear,110,2013-03-25 08:53:00
3:53 AM,1.9,-2.0,83,30.46,10.0,East,9.2,-,N/A,,Clear,100,2013-03-25 09:53:00
4:53 AM,1.9,-2.0,83,30.46,10.0,East,11.5,-,N/A,,Clear,100,2013-03-25 10:53:00
5:53 AM,3.0,-0.9,84,30.45,10.0,East,10.4,-,N/A,,Clear,100,2013-03-25 11:53:00
6:53 AM,1.9,-2.0,83,30.45,10.0,East,11.5,-,N/A,,Clear,100,2013-03-25 12:53:00
7:53 AM,1.9,-0.9,88,30.44,10.0,East,10.4,-,N/A,,Clear,100,2013-03-25 13:53:00
8:53 AM,5.0,1.9,87,30.44,10.0,ESE,12.7,-,N/A,,Clear,110,2013-03-25 14:53:00
9:53 AM,9.0,5.0,84,30.43,10.0,ESE,12.7,-,N/A,,Clear,110,2013-03-25 15:53:00
10:53 AM,12.9,8.1,81,30.41,10.0,ESE,13.8,-,N/A,,Clear,120,2013-03-25 16:53:00
11:53 AM,16.0,10.0,77,30.40,10.0,ESE,15.0,-,N/A,,Clear,110,2013-03-25 17:53:00
12:53 PM,19.9,12.9,74,30.37,10.0,ESE,17.3,-,N/A,,Clear,110,2013-03-25 18:53:00
1:53 PM,21.9,15.1,75,30.35,10.0,East,16.1,-,N/A,,Clear,100,2013-03-25 19:53:00
2:53 PM,24.1,17.1,75,30.32,10.0,East,18.4,-,N/A,,Clear,100,2013-03-25 20:53:00
3:53 PM,26.1,19.0,75,30.29,10.0,East,18.4,-,N/A,,Clear,100,2013-03-25 21:53:00
4:53 PM,26.1,19.0,75,30.28,10.0,East,19.6,-,N/A,,Clear,100,2013-03-25 22:53:00
5:53 PM,25.0,18.0,75,30.27,10.0,East,15.0,-,N/A,,Clear,100,2013-03-25 23:53:00
6:53 PM,21.9,16.0,78,30.26,10.0,East,17.3,-,N/A,,Clear,100,2013-03-26 00:53:00
7:53 PM,21.0,15.1,78,30.25,10.0,East,16.1,-,N/A,,Clear,100,2013-03-26 01:53:00
8:53 PM,19.9,15.1,81,30.24,10.0,East,16.1,-,N/A,,Clear,100,2013-03-26 02:53:00
9:53 PM,19.9,15.1,81,30.22,10.0,East,16.1,-,N/A,,Clear,100,2013-03-26 03:53:00
10:53 PM,19.0,14.0,81,30.21,10.0,East,15.0,-,N/A,,Clear,100,2013-03-26 04:53:00
11:53 PM,17.1,12.9,84,30.20,10.0,East,15.0,-,N/A,,Clear,100,2013-03-26 05:53:00